Year,Month,Day,Hour,Minute,Value (Times are PST for temperature in C)
2018,01,16,00,00,10.20
2018,01,16,00,01,10.20
2018,01,16,00,02,10.30
2018,01,16,00,03,10.30
2018,01,16,00,04,10.30
2018,01,16,00,05,10.30
2018,01,16,00,06,10.30
2018,01,16,00,07,10.30
2018,01,16,00,08,10.30
2018,01,16,00,09,10.30
2018,01,16,00,10,10.30
2018,01,16,00,11,10.30
2018,01,16,00,12,10.40
2018,01,16,00,13,10.40
2018,01,16,00,14,10.40
2018,01,16,00,15,10.40
2018,01,16,00,16,10.40
2018,01,16,00,17,10.40
2018,01,16,00,18,10.40
2018,01,16,00,19,10.40
2018,01,16,00,20,10.40
2018,01,16,00,21,10.40
2018,01,16,00,22,10.40
2018,01,16,00,23,10.40
2018,01,16,00,24,10.40
2018,01,16,00,25,10.40
2018,01,16,00,26,10.40
2018,01,16,00,27,10.40
2018,01,16,00,28,10.40
2018,01,16,00,29,10.40
2018,01,16,00,30,10.30
2018,01,16,00,31,10.30
2018,01,16,00,32,10.30
2018,01,16,00,33,10.30
2018,01,16,00,34,10.30
2018,01,16,00,35,10.30
2018,01,16,00,36,10.30
2018,01,16,00,37,10.30
2018,01,16,00,38,10.30
2018,01,16,00,39,10.30
2018,01,16,00,40,10.30
2018,01,16,00,41,10.30
2018,01,16,00,42,10.30
2018,01,16,00,43,10.30
2018,01,16,00,44,10.20
2018,01,16,00,45,10.20
2018,01,16,00,46,10.20
2018,01,16,00,47,10.20
2018,01,16,00,48,10.20
2018,01,16,00,49,10.20
2018,01,16,00,50,10.10
2018,01,16,00,51,10.10
2018,01,16,00,52,10.10
2018,01,16,00,53,10.10
2018,01,16,00,54,10.10
2018,01,16,00,55,10.10
2018,01,16,00,56,10.10
2018,01,16,00,57,10.00
2018,01,16,00,58,9.90
2018,01,16,00,59,9.90
2018,01,16,01,00,9.90
2018,01,16,01,01,9.90
2018,01,16,01,02,9.90
2018,01,16,01,03,9.90
2018,01,16,01,04,9.90
2018,01,16,01,05,9.90
2018,01,16,01,06,9.90
2018,01,16,01,07,9.90
2018,01,16,01,08,9.80
2018,01,16,01,09,9.80
2018,01,16,01,10,9.80
2018,01,16,01,11,9.80
2018,01,16,01,12,9.80
2018,01,16,01,13,9.80
2018,01,16,01,14,9.70
2018,01,16,01,15,9.70
2018,01,16,01,16,9.70
2018,01,16,01,17,9.70
2018,01,16,01,18,9.70
2018,01,16,01,19,9.70
2018,01,16,01,20,9.70
2018,01,16,01,21,9.70
2018,01,16,01,22,9.70
2018,01,16,01,23,9.70
2018,01,16,01,24,9.60
2018,01,16,01,25,9.60
2018,01,16,01,26,9.60
2018,01,16,01,27,9.60
2018,01,16,01,28,9.50
2018,01,16,01,29,9.50
2018,01,16,01,30,9.50
2018,01,16,01,31,9.50
2018,01,16,01,32,9.50
2018,01,16,01,33,9.50
2018,01,16,01,34,9.50
2018,01,16,01,35,9.50
2018,01,16,01,36,9.50
2018,01,16,01,37,9.50
2018,01,16,01,38,9.50
2018,01,16,01,39,9.50
2018,01,16,01,40,9.50
2018,01,16,01,41,9.50
2018,01,16,01,42,9.50
2018,01,16,01,43,9.50
2018,01,16,01,44,9.50
2018,01,16,01,45,9.50
2018,01,16,01,46,9.50
2018,01,16,01,47,9.50
2018,01,16,01,48,9.60
2018,01,16,01,49,9.60
2018,01,16,01,50,9.60
2018,01,16,01,51,9.60
2018,01,16,01,52,9.60
2018,01,16,01,53,9.60
2018,01,16,01,54,9.60
2018,01,16,01,55,9.60
2018,01,16,01,56,9.60
2018,01,16,01,57,9.50
2018,01,16,01,58,9.50
2018,01,16,01,59,9.50
2018,01,16,02,00,9.50
2018,01,16,02,01,9.40
2018,01,16,02,02,9.40
2018,01,16,02,03,9.40
2018,01,16,02,04,9.30
2018,01,16,02,05,9.30
2018,01,16,02,06,9.30
2018,01,16,02,07,9.20
2018,01,16,02,08,9.20
2018,01,16,02,09,9.10
2018,01,16,02,10,9.10
2018,01,16,02,11,9.00
2018,01,16,02,12,9.00
2018,01,16,02,13,8.90
2018,01,16,02,14,8.90
2018,01,16,02,15,8.90
2018,01,16,02,16,8.90
2018,01,16,02,17,8.90
2018,01,16,02,18,8.80
2018,01,16,02,19,8.80
2018,01,16,02,20,8.80
2018,01,16,02,21,8.80
2018,01,16,02,22,8.80
2018,01,16,02,23,8.80
2018,01,16,02,24,8.80
2018,01,16,02,25,8.80
2018,01,16,02,26,8.80
2018,01,16,02,27,8.90
2018,01,16,02,28,8.90
2018,01,16,02,29,8.90
2018,01,16,02,30,8.90
2018,01,16,02,31,9.00
2018,01,16,02,32,9.00
2018,01,16,02,33,9.00
2018,01,16,02,34,9.00
2018,01,16,02,35,9.10
2018,01,16,02,36,9.10
2018,01,16,02,37,9.10
2018,01,16,02,38,9.20
2018,01,16,02,39,9.20
2018,01,16,02,40,9.20
2018,01,16,02,41,9.30
2018,01,16,02,42,9.30
2018,01,16,02,43,9.40
2018,01,16,02,44,9.40
2018,01,16,02,45,9.50
2018,01,16,02,46,9.50
2018,01,16,02,47,9.50
2018,01,16,02,48,9.50
2018,01,16,02,49,9.60
2018,01,16,02,50,9.60
2018,01,16,02,51,9.60
2018,01,16,02,52,9.60
2018,01,16,02,53,9.50
2018,01,16,02,54,9.50
2018,01,16,02,55,9.50
2018,01,16,02,56,9.50
2018,01,16,02,57,9.40
2018,01,16,02,58,9.40
2018,01,16,02,59,9.30
2018,01,16,03,00,9.30
2018,01,16,03,01,9.30
2018,01,16,03,02,9.20
2018,01,16,03,03,9.20
2018,01,16,03,04,9.20
2018,01,16,03,05,9.20
2018,01,16,03,06,9.20
2018,01,16,03,07,9.20
2018,01,16,03,08,9.20
2018,01,16,03,09,9.20
2018,01,16,03,10,9.10
2018,01,16,03,11,9.10
2018,01,16,03,12,9.10
2018,01,16,03,13,9.10
2018,01,16,03,14,9.00
2018,01,16,03,15,9.00
2018,01,16,03,16,9.00
2018,01,16,03,17,8.90
2018,01,16,03,18,8.90
2018,01,16,03,19,8.90
2018,01,16,03,20,8.80
2018,01,16,03,21,8.80
2018,01,16,03,22,8.70
2018,01,16,03,23,8.70
2018,01,16,03,24,8.70
2018,01,16,03,25,8.70
2018,01,16,03,26,8.70
2018,01,16,03,27,8.70
2018,01,16,03,28,8.60
2018,01,16,03,29,8.60
2018,01,16,03,30,8.50
2018,01,16,03,31,8.50
2018,01,16,03,32,8.40
2018,01,16,03,33,8.40
2018,01,16,03,34,8.40
2018,01,16,03,35,8.40
2018,01,16,03,36,8.40
2018,01,16,03,37,8.40
2018,01,16,03,38,8.30
2018,01,16,03,39,8.40
2018,01,16,03,40,8.40
2018,01,16,03,41,8.40
2018,01,16,03,42,8.40
2018,01,16,03,43,8.50
2018,01,16,03,44,8.50
2018,01,16,03,45,8.50
2018,01,16,03,46,8.60
2018,01,16,03,47,8.60
2018,01,16,03,48,8.70
2018,01,16,03,49,8.80
2018,01,16,03,50,8.90
2018,01,16,03,51,9.00
2018,01,16,03,52,9.00
2018,01,16,03,53,9.10
2018,01,16,03,54,9.20
2018,01,16,03,55,9.30
2018,01,16,03,56,9.40
2018,01,16,03,57,9.40
2018,01,16,03,58,9.50
2018,01,16,03,59,9.60
2018,01,16,04,00,9.60
2018,01,16,04,01,9.70
2018,01,16,04,02,9.70
2018,01,16,04,03,9.70
2018,01,16,04,04,9.70
2018,01,16,04,05,9.80
2018,01,16,04,06,9.80
2018,01,16,04,07,9.80
2018,01,16,04,08,9.80
2018,01,16,04,09,9.80
2018,01,16,04,10,9.80
2018,01,16,04,11,9.80
2018,01,16,04,12,9.80
2018,01,16,04,13,9.80
2018,01,16,04,14,9.80
2018,01,16,04,15,9.90
2018,01,16,04,16,9.90
2018,01,16,04,17,9.90
2018,01,16,04,18,9.90
2018,01,16,04,19,9.90
2018,01,16,04,20,9.90
2018,01,16,04,21,9.90
2018,01,16,04,22,9.90
2018,01,16,04,23,9.90
2018,01,16,04,24,9.90
2018,01,16,04,25,9.90
2018,01,16,04,26,9.90
2018,01,16,04,27,9.90
2018,01,16,08,23,7.30
2018,01,16,08,24,7.30
2018,01,16,08,25,7.30
2018,01,16,08,26,7.30
2018,01,16,08,27,7.30
2018,01,16,08,28,7.20
2018,01,16,08,29,7.20
2018,01,16,08,30,7.20
2018,01,16,08,31,7.20
2018,01,16,08,32,7.20
2018,01,16,08,33,7.10
2018,01,16,08,34,7.10
2018,01,16,08,35,7.10
2018,01,16,08,36,7.10
2018,01,16,08,37,7.10
2018,01,16,08,38,7.10
2018,01,16,08,39,7.00
2018,01,16,08,40,7.00
2018,01,16,08,41,7.00
2018,01,16,08,42,7.00
2018,01,16,08,43,7.00
2018,01,16,08,44,7.00
2018,01,16,08,45,7.10
2018,01,16,08,46,7.10
2018,01,16,08,47,7.10
2018,01,16,08,48,7.10
2018,01,16,08,49,7.10
2018,01,16,08,50,7.10
2018,01,16,08,51,7.20
2018,01,16,08,52,7.20
2018,01,16,08,53,7.20
2018,01,16,08,54,7.30
2018,01,16,08,55,7.30
2018,01,16,08,56,7.30
2018,01,16,08,57,7.30
2018,01,16,08,58,7.30
2018,01,16,08,59,7.30
2018,01,16,09,00,7.40
2018,01,16,09,01,7.40
2018,01,16,09,02,7.50
2018,01,16,09,03,7.50
2018,01,16,09,04,7.50
2018,01,16,09,05,7.60
2018,01,16,09,06,7.60
2018,01,16,09,07,7.70
2018,01,16,09,08,7.70
2018,01,16,09,09,7.80
2018,01,16,09,10,7.80
2018,01,16,09,11,7.80
2018,01,16,09,12,7.90
2018,01,16,09,13,7.90
2018,01,16,09,14,7.90
2018,01,16,09,15,8.00
2018,01,16,09,16,8.00
2018,01,16,09,17,8.00
2018,01,16,09,18,8.10
2018,01,16,09,19,8.10
2018,01,16,09,20,8.20
2018,01,16,09,21,8.20
2018,01,16,09,22,8.20
2018,01,16,09,23,8.20
2018,01,16,09,24,8.20
2018,01,16,09,25,8.20
2018,01,16,09,26,8.20
2018,01,16,09,27,8.20
2018,01,16,09,28,8.30
2018,01,16,09,29,8.30
2018,01,16,09,30,8.30
2018,01,16,09,31,8.30
2018,01,16,09,32,8.30
2018,01,16,09,33,8.30
2018,01,16,09,34,8.20
2018,01,16,09,35,8.20
2018,01,16,09,36,8.20
2018,01,16,09,37,8.20
2018,01,16,09,38,8.20
2018,01,16,09,39,8.20
2018,01,16,09,40,8.10
2018,01,16,09,41,8.10
2018,01,16,09,42,8.10
2018,01,16,09,43,8.00
2018,01,16,09,44,8.00
2018,01,16,09,45,8.00
2018,01,16,09,46,7.90
2018,01,16,09,47,7.90
2018,01,16,09,48,7.90
2018,01,16,09,49,7.90
2018,01,16,09,50,7.90
2018,01,16,09,51,7.90
2018,01,16,09,52,7.90
2018,01,16,09,53,7.90
2018,01,16,09,54,7.90
2018,01,16,09,55,7.90
2018,01,16,09,56,8.00
2018,01,16,09,57,8.00
2018,01,16,09,58,8.10
2018,01,16,09,59,8.10
2018,01,16,10,00,8.10
2018,01,16,10,01,8.20
2018,01,16,10,02,8.20
2018,01,16,10,03,8.20
2018,01,16,10,04,8.20
2018,01,16,10,05,8.20
2018,01,16,10,06,8.20
2018,01,16,10,07,8.20
2018,01,16,10,08,8.20
2018,01,16,10,09,8.20
2018,01,16,10,10,8.30
2018,01,16,10,11,8.30
2018,01,16,10,12,8.20
2018,01,16,10,13,8.20
2018,01,16,10,14,8.20
2018,01,16,10,15,8.20
2018,01,16,10,16,8.10
2018,01,16,10,17,8.10
2018,01,16,10,18,8.00
2018,01,16,10,19,8.00
2018,01,16,10,20,8.00
2018,01,16,10,21,7.90
2018,01,16,10,22,7.90
2018,01,16,10,23,7.90
2018,01,16,10,24,7.90
2018,01,16,10,25,7.80
2018,01,16,10,26,7.80
2018,01,16,10,27,7.80
2018,01,16,10,28,7.80
2018,01,16,10,29,7.80
2018,01,16,10,30,7.80
2018,01,16,10,31,7.90
2018,01,16,10,32,7.90
2018,01,16,10,33,7.90
2018,01,16,10,34,8.00
2018,01,16,10,35,8.00
2018,01,16,10,36,8.10
2018,01,16,10,37,8.10
2018,01,16,10,38,8.20
2018,01,16,10,39,8.20
2018,01,16,10,40,8.30
2018,01,16,10,41,8.30
2018,01,16,10,42,8.30
2018,01,16,10,43,8.40
2018,01,16,10,44,8.40
2018,01,16,10,45,8.50
2018,01,16,10,46,8.60
2018,01,16,10,47,8.60
2018,01,16,10,48,8.70
2018,01,16,10,49,8.70
2018,01,16,10,50,8.70
2018,01,16,10,51,8.70
2018,01,16,10,52,8.80
2018,01,16,10,53,8.80
2018,01,16,10,54,8.80
2018,01,16,10,55,8.80
2018,01,16,10,56,8.80
2018,01,16,10,57,8.90
2018,01,16,10,58,8.90
2018,01,16,10,59,8.90
2018,01,16,11,00,8.90
2018,01,16,11,01,9.00
2018,01,16,11,02,9.00
2018,01,16,11,03,9.00
2018,01,16,11,04,9.10
2018,01,16,11,05,9.10
2018,01,16,11,06,9.10
2018,01,16,11,07,9.20
2018,01,16,11,08,9.20
2018,01,16,11,09,9.20
2018,01,16,11,10,9.20
2018,01,16,11,11,9.20
2018,01,16,11,12,9.30
2018,01,16,11,13,9.30
2018,01,16,11,14,9.40
2018,01,16,11,15,9.40
2018,01,16,11,16,9.50
2018,01,16,11,17,9.50
2018,01,16,11,18,9.50
2018,01,16,11,19,9.50
2018,01,16,11,20,9.60
2018,01,16,11,21,9.60
2018,01,16,11,22,9.60
2018,01,16,11,23,9.60
2018,01,16,11,24,9.60
2018,01,16,11,25,9.60
2018,01,16,11,26,9.60
2018,01,16,11,27,9.70
2018,01,16,11,28,9.60
2018,01,16,11,29,9.60
2018,01,16,11,30,9.70
2018,01,16,11,31,9.70
2018,01,16,11,32,9.70
2018,01,16,11,33,9.70
2018,01,16,11,34,9.70
2018,01,16,11,35,9.70
2018,01,16,11,36,9.70
2018,01,16,11,37,9.70
2018,01,16,11,38,9.70
2018,01,16,11,39,9.70
2018,01,16,11,40,9.70
2018,01,16,11,41,9.70
2018,01,16,11,42,9.70
2018,01,16,11,43,9.70
2018,01,16,11,44,9.80
2018,01,16,11,45,9.80
2018,01,16,11,46,9.80
2018,01,16,11,47,9.90
2018,01,16,11,48,9.90
2018,01,16,11,49,9.90
2018,01,16,11,50,9.90
2018,01,16,11,51,9.90
2018,01,16,11,52,9.90
2018,01,16,11,53,9.90
2018,01,16,11,54,9.90
2018,01,16,11,55,10.00
2018,01,16,11,56,10.10
2018,01,16,11,57,10.10
2018,01,16,11,58,9.90
2018,01,16,11,59,10.00
2018,01,16,12,00,9.90
2018,01,16,12,01,9.90
2018,01,16,12,02,9.90
2018,01,16,12,03,9.90
2018,01,16,12,04,9.90
2018,01,16,12,05,9.90
2018,01,16,12,06,9.90
2018,01,16,12,07,9.90
2018,01,16,12,08,9.90
2018,01,16,12,09,9.90
2018,01,16,12,10,9.80
2018,01,16,12,11,9.80
2018,01,16,12,12,9.70
2018,01,16,12,13,9.70
2018,01,16,12,14,9.70
2018,01,16,12,15,9.70
2018,01,16,12,16,9.70
2018,01,16,12,17,9.70
2018,01,16,12,18,9.60
2018,01,16,12,19,9.60
2018,01,16,12,20,9.60
2018,01,16,12,21,9.60
2018,01,16,12,22,9.60
2018,01,16,12,23,9.60
2018,01,16,12,24,9.50
2018,01,16,12,25,9.50
2018,01,16,12,26,9.50
2018,01,16,12,27,9.50
2018,01,16,12,28,9.50
2018,01,16,12,29,9.50
2018,01,16,12,30,9.40
2018,01,16,12,31,9.40
2018,01,16,12,32,9.40
2018,01,16,12,33,9.40
2018,01,16,12,34,9.40
2018,01,16,12,35,9.50
2018,01,16,12,36,9.50
2018,01,16,12,37,9.50
2018,01,16,12,38,9.50
2018,01,16,12,39,9.50
2018,01,16,12,40,9.60
2018,01,16,12,41,9.60
2018,01,16,12,42,9.60
2018,01,16,12,43,9.60
2018,01,16,12,44,9.60
2018,01,16,12,45,9.50
2018,01,16,12,46,9.50
2018,01,16,12,47,9.50
2018,01,16,12,48,9.40
2018,01,16,12,49,9.40
2018,01,16,12,50,9.40
2018,01,16,12,51,9.40
2018,01,16,12,52,9.40
2018,01,16,12,53,9.40
2018,01,16,12,54,9.50
2018,01,16,12,55,9.50
2018,01,16,12,56,9.50
2018,01,16,12,57,9.60
2018,01,16,12,58,9.60
2018,01,16,12,59,9.60
2018,01,16,13,00,9.60
2018,01,16,13,01,9.70
2018,01,16,13,02,9.70
2018,01,16,13,03,9.70
2018,01,16,13,04,9.70
2018,01,16,13,05,9.70
2018,01,16,13,06,9.70
2018,01,16,13,07,9.70
2018,01,16,13,08,9.70
2018,01,16,13,09,9.70
2018,01,16,13,10,9.70
2018,01,16,13,11,9.70
2018,01,16,13,12,9.70
2018,01,16,13,13,9.70
2018,01,16,13,14,9.70
2018,01,16,13,15,9.60
2018,01,16,13,16,9.60
2018,01,16,13,17,9.60
2018,01,16,13,18,9.60
2018,01,16,13,19,9.60
2018,01,16,13,20,9.70
2018,01,16,13,21,9.70
2018,01,16,13,22,9.70
2018,01,16,13,23,9.60
2018,01,16,13,24,9.60
2018,01,16,13,25,9.60
2018,01,16,13,26,9.50
2018,01,16,13,27,9.50
2018,01,16,13,28,9.50
2018,01,16,13,29,9.50
2018,01,16,13,30,9.50
2018,01,16,13,31,9.50
2018,01,16,13,32,9.50
2018,01,16,13,33,9.50
2018,01,16,13,34,9.50
2018,01,16,13,35,9.50
2018,01,16,13,36,9.50
2018,01,16,13,37,9.50
2018,01,16,13,38,9.50
2018,01,16,13,39,9.40
2018,01,16,13,40,9.40
2018,01,16,13,41,9.40
2018,01,16,13,42,9.40
2018,01,16,13,43,9.40
2018,01,16,13,44,9.40
2018,01,16,13,45,9.40
2018,01,16,13,46,9.40
2018,01,16,13,47,9.40
2018,01,16,13,48,9.40
2018,01,16,13,49,9.40
2018,01,16,13,50,9.40
2018,01,16,13,51,9.40
2018,01,16,13,52,9.40
2018,01,16,13,53,9.40
2018,01,16,13,54,9.40
2018,01,16,13,55,9.40
2018,01,16,13,56,9.40
2018,01,16,13,57,9.30
2018,01,16,13,58,9.30
2018,01,16,13,59,9.30
2018,01,16,14,00,9.30
2018,01,16,14,01,9.30
2018,01,16,14,02,9.30
2018,01,16,14,03,9.20
2018,01,16,14,04,9.20
2018,01,16,14,05,9.20
2018,01,16,14,06,9.20
2018,01,16,14,07,9.20
2018,01,16,14,08,9.20
2018,01,16,14,09,9.20
2018,01,16,14,10,9.20
2018,01,16,14,11,9.20
2018,01,16,14,12,9.20
2018,01,16,14,13,9.20
2018,01,16,14,14,9.10
2018,01,16,14,15,9.10
2018,01,16,14,16,9.10
2018,01,16,14,17,9.10
2018,01,16,14,18,9.10
2018,01,16,14,19,9.10
2018,01,16,14,20,9.10
2018,01,16,14,21,9.00
2018,01,16,14,22,9.00
2018,01,16,14,23,9.00
2018,01,16,14,24,9.00
2018,01,16,14,25,9.00
2018,01,16,14,26,9.00
2018,01,16,14,27,9.00
2018,01,16,14,28,9.00
2018,01,16,14,29,9.00
2018,01,16,14,30,9.00
2018,01,16,14,31,9.00
2018,01,16,14,32,9.00
2018,01,16,14,33,9.00
2018,01,16,14,34,9.00
2018,01,16,14,35,9.00
2018,01,16,14,36,9.00
2018,01,16,14,37,9.00
2018,01,16,14,38,9.00
2018,01,16,14,39,9.00
2018,01,16,14,40,9.00
2018,01,16,14,41,9.00
2018,01,16,14,42,9.00
2018,01,16,14,43,9.00
2018,01,16,14,44,9.00
2018,01,16,14,45,9.10
2018,01,16,14,46,9.10
2018,01,16,14,47,9.10
2018,01,16,14,48,9.10
2018,01,16,14,49,9.10
2018,01,16,14,50,9.10
2018,01,16,14,51,9.10
2018,01,16,14,52,9.10
2018,01,16,14,53,9.10
2018,01,16,14,54,9.10
2018,01,16,14,55,9.10
2018,01,16,14,56,9.10
2018,01,16,14,57,9.10
2018,01,16,14,58,9.10
2018,01,16,14,59,9.10
2018,01,16,15,00,9.10
2018,01,16,15,01,9.10
2018,01,16,15,02,9.10
2018,01,16,15,03,9.10
2018,01,16,15,04,9.10
2018,01,16,15,05,9.10
2018,01,16,15,06,9.10
2018,01,16,15,07,9.10
2018,01,16,15,08,9.10
2018,01,16,15,09,9.10
2018,01,16,15,10,9.20
2018,01,16,15,11,9.20
2018,01,16,15,12,9.20
2018,01,16,15,13,9.10
2018,01,16,15,14,9.20
2018,01,16,15,15,9.20
2018,01,16,15,16,9.20
2018,01,16,15,17,9.20
2018,01,16,15,18,9.20
2018,01,16,15,19,9.20
2018,01,16,15,20,9.10
2018,01,16,15,21,9.10
2018,01,16,15,22,9.10
2018,01,16,15,23,9.10
2018,01,16,15,24,9.10
2018,01,16,15,25,9.10
2018,01,16,15,26,9.10
2018,01,16,15,27,9.10
2018,01,16,15,28,9.10
2018,01,16,15,29,9.10
2018,01,16,15,30,9.00
2018,01,16,15,31,9.00
2018,01,16,15,32,9.00
2018,01,16,15,33,9.00
2018,01,16,15,34,9.00
2018,01,16,15,35,8.90
2018,01,16,15,36,8.90
2018,01,16,15,37,8.90
2018,01,16,15,38,8.90
2018,01,16,15,39,8.90
2018,01,16,15,40,8.80
2018,01,16,15,41,8.80
2018,01,16,15,42,8.70
2018,01,16,15,43,8.70
2018,01,16,15,44,8.70
2018,01,16,15,45,8.70
2018,01,16,15,46,8.70
2018,01,16,15,47,8.60
2018,01,16,15,48,8.60
2018,01,16,15,49,8.50
2018,01,16,15,50,8.50
2018,01,16,15,51,8.50
2018,01,16,15,52,8.50
2018,01,16,15,53,8.40
2018,01,16,15,54,8.40
2018,01,16,15,55,8.40
2018,01,16,15,56,8.40
2018,01,16,15,57,8.40
2018,01,16,15,58,8.30
2018,01,16,15,59,8.30
2018,01,16,16,00,8.30
2018,01,16,16,01,8.30
2018,01,16,16,02,8.20
2018,01,16,16,03,8.20
2018,01,16,16,04,8.20
2018,01,16,16,05,8.20
2018,01,16,16,06,8.20
2018,01,16,16,07,8.20
2018,01,16,16,08,8.20
2018,01,16,16,09,8.10
2018,01,16,16,10,8.10
2018,01,16,16,11,8.10
2018,01,16,16,12,8.00
2018,01,16,16,13,8.00
2018,01,16,16,14,8.00
2018,01,16,16,15,7.90
2018,01,16,16,16,7.90
2018,01,16,16,17,7.80
2018,01,16,16,18,7.80
2018,01,16,16,19,7.80
2018,01,16,16,20,7.80
2018,01,16,16,21,7.70
2018,01,16,16,22,7.70
2018,01,16,16,23,7.60
2018,01,16,16,24,7.60
2018,01,16,16,25,7.60
2018,01,16,16,26,7.50
2018,01,16,16,27,7.50
2018,01,16,16,28,7.50
2018,01,16,16,29,7.50
2018,01,16,16,30,7.50
2018,01,16,16,31,7.50
2018,01,16,16,32,7.40
2018,01,16,16,33,7.40
2018,01,16,16,34,7.40
2018,01,16,16,35,7.30
2018,01,16,16,36,7.30
2018,01,16,16,37,7.30
2018,01,16,16,38,7.30
2018,01,16,16,39,7.20
2018,01,16,16,40,7.20
2018,01,16,16,41,7.10
2018,01,16,16,42,7.10
2018,01,16,16,43,7.00
2018,01,16,16,44,7.00
2018,01,16,16,45,7.00
2018,01,16,16,46,7.00
2018,01,16,16,47,6.90
2018,01,16,16,48,6.90
2018,01,16,16,49,6.90
2018,01,16,16,50,6.80
2018,01,16,16,51,6.80
2018,01,16,16,52,6.80
2018,01,16,16,53,6.80
2018,01,16,16,54,6.80
2018,01,16,16,55,6.70
2018,01,16,16,56,6.70
2018,01,16,16,57,6.70
2018,01,16,16,58,6.60
2018,01,16,16,59,6.60
2018,01,16,17,00,6.60
2018,01,16,17,01,6.60
2018,01,16,17,02,6.60
2018,01,16,17,03,6.60
2018,01,16,17,04,6.50
2018,01,16,17,05,6.40
2018,01,16,17,06,6.40
2018,01,16,17,07,6.40
2018,01,16,17,08,6.40
2018,01,16,17,09,6.30
2018,01,16,17,10,6.30
2018,01,16,17,11,6.30
2018,01,16,17,12,6.30
2018,01,16,17,13,6.30
2018,01,16,17,14,6.20
2018,01,16,17,15,6.20
2018,01,16,17,16,6.20
2018,01,16,17,17,6.20
2018,01,16,17,18,6.10
2018,01,16,17,19,6.10
2018,01,16,17,20,6.10
2018,01,16,17,21,6.10
2018,01,16,17,22,6.00
2018,01,16,17,23,6.00
2018,01,16,17,24,6.00
2018,01,16,17,25,6.00
2018,01,16,17,26,6.00
2018,01,16,17,27,6.00
2018,01,16,17,28,6.00
2018,01,16,17,29,6.00
2018,01,16,17,30,6.00
2018,01,16,17,31,6.10
2018,01,16,17,32,6.10
2018,01,16,17,33,6.10
2018,01,16,17,34,6.10
2018,01,16,17,35,6.10
2018,01,16,17,36,6.10
2018,01,16,17,37,6.10
2018,01,16,17,38,6.10
2018,01,16,17,39,6.10
2018,01,16,17,40,6.10
2018,01,16,17,41,6.00
2018,01,16,17,42,6.00
2018,01,16,17,43,6.00
2018,01,16,17,44,6.00
2018,01,16,17,45,6.00
2018,01,16,17,46,6.00
2018,01,16,17,47,6.00
2018,01,16,17,48,6.00
2018,01,16,17,49,6.00
2018,01,16,17,50,6.00
2018,01,16,17,51,6.00
2018,01,16,17,52,6.00
2018,01,16,17,53,6.00
2018,01,16,17,54,6.00
2018,01,16,17,55,5.90
2018,01,16,17,56,5.90
2018,01,16,17,57,5.90
2018,01,16,17,58,5.90
2018,01,16,17,59,5.90
2018,01,16,18,00,5.90
2018,01,16,18,01,5.90
2018,01,16,18,02,5.90
2018,01,16,18,03,5.90
2018,01,16,18,04,5.90
2018,01,16,18,05,5.90
2018,01,16,18,06,5.90
2018,01,16,18,07,5.90
2018,01,16,18,08,5.90
2018,01,16,18,09,5.90
2018,01,16,18,10,5.90
2018,01,16,18,11,5.90
2018,01,16,18,12,6.00
2018,01,16,18,13,6.00
2018,01,16,18,14,6.00
2018,01,16,18,15,6.00
2018,01,16,18,16,6.00
2018,01,16,18,17,6.10
2018,01,16,18,18,6.10
2018,01,16,18,19,6.10
2018,01,16,18,20,6.10
2018,01,16,18,21,6.10
2018,01,16,18,22,6.10
2018,01,16,18,23,6.10
2018,01,16,18,24,6.20
2018,01,16,18,25,6.20
2018,01,16,18,26,6.20
2018,01,16,18,27,6.20
2018,01,16,18,28,6.20
2018,01,16,18,29,6.20
2018,01,16,18,30,6.20
2018,01,16,18,31,6.20
2018,01,16,18,32,6.20
2018,01,16,18,33,6.20
2018,01,16,18,34,6.30
2018,01,16,18,35,6.30
2018,01,16,18,36,6.30
2018,01,16,18,37,6.30
2018,01,16,18,38,6.30
2018,01,16,18,39,6.30
2018,01,16,18,40,6.30
2018,01,16,18,41,6.30
2018,01,16,18,42,6.30
2018,01,16,18,43,6.30
2018,01,16,18,44,6.30
2018,01,16,18,45,6.30
2018,01,16,18,46,6.20
2018,01,16,18,47,6.20
2018,01,16,18,48,6.20
2018,01,16,18,49,6.20
2018,01,16,18,50,6.20
2018,01,16,18,51,6.20
2018,01,16,18,52,6.20
2018,01,16,18,53,6.20
2018,01,16,18,54,6.20
2018,01,16,18,55,6.20
2018,01,16,18,56,6.20
2018,01,16,18,57,6.20
2018,01,16,18,58,6.20
2018,01,16,18,59,6.20
2018,01,16,19,00,6.20
2018,01,16,19,01,6.20
2018,01,16,19,02,6.20
2018,01,16,19,03,6.20
2018,01,16,19,04,6.20
2018,01,16,19,05,6.20
2018,01,16,19,06,6.10
2018,01,16,19,07,6.10
2018,01,16,19,08,6.10
2018,01,16,19,09,6.10
2018,01,16,19,10,6.10
2018,01,16,19,11,6.20
2018,01,16,19,12,6.20
2018,01,16,19,13,6.20
2018,01,16,19,14,6.20
2018,01,16,19,15,6.20
2018,01,16,19,16,6.20
2018,01,16,19,17,6.20
2018,01,16,19,18,6.20
2018,01,16,19,19,6.20
2018,01,16,19,20,6.20
2018,01,16,19,21,6.20
2018,01,16,19,22,6.20
2018,01,16,19,23,6.20
2018,01,16,19,24,6.20
2018,01,16,19,25,6.20
2018,01,16,19,26,6.30
2018,01,16,19,27,6.30
2018,01,16,19,28,6.40
2018,01,16,19,29,6.40
2018,01,16,19,30,6.40
2018,01,16,19,31,6.50
2018,01,16,19,32,6.60
2018,01,16,19,33,6.60
2018,01,16,19,34,6.60
2018,01,16,19,35,6.60
2018,01,16,19,36,6.60
2018,01,16,19,37,6.60
2018,01,16,19,38,6.60
2018,01,16,19,39,6.60
2018,01,16,19,40,6.60
2018,01,16,19,41,6.50
2018,01,16,19,42,6.40
2018,01,16,19,43,6.40
2018,01,16,19,44,6.40
2018,01,16,19,45,6.40
2018,01,16,19,46,6.40
2018,01,16,19,47,6.40
2018,01,16,19,48,6.40
2018,01,16,19,49,6.40
2018,01,16,19,50,6.40
2018,01,16,19,51,6.40
2018,01,16,19,52,6.40
2018,01,16,19,53,6.40
2018,01,16,19,54,6.50
2018,01,16,19,55,6.60
2018,01,16,19,56,6.60
2018,01,16,19,57,6.60
2018,01,16,19,58,6.60
2018,01,16,19,59,6.60
2018,01,16,20,00,6.50
2018,01,16,20,01,6.40
2018,01,16,20,02,6.40
2018,01,16,20,03,6.40
2018,01,16,20,04,6.40
2018,01,16,20,05,6.40
2018,01,16,20,06,6.40
2018,01,16,20,07,6.40
2018,01,16,20,08,6.30
2018,01,16,20,09,6.30
2018,01,16,20,10,6.30
2018,01,16,20,11,6.30
2018,01,16,20,12,6.20
2018,01,16,20,13,6.20
2018,01,16,20,14,6.20
2018,01,16,20,15,6.20
2018,01,16,20,16,6.20
2018,01,16,20,17,6.10
2018,01,16,20,18,6.10
2018,01,16,20,19,6.10
2018,01,16,20,20,6.00
2018,01,16,20,21,6.00
2018,01,16,20,22,6.00
2018,01,16,20,23,6.00
2018,01,16,20,24,6.00
2018,01,16,20,25,6.00
2018,01,16,20,26,6.00
2018,01,16,20,27,6.00
2018,01,16,20,28,6.00
2018,01,16,20,29,5.90
2018,01,16,20,30,5.90
2018,01,16,20,31,5.90
2018,01,16,20,32,5.90
2018,01,16,20,33,5.90
2018,01,16,20,34,5.90
2018,01,16,20,35,6.00
2018,01,16,20,36,6.00
2018,01,16,20,37,6.00
2018,01,16,20,38,6.00
2018,01,16,20,39,6.10
2018,01,16,20,40,6.10
2018,01,16,20,41,6.10
2018,01,16,20,42,6.20
2018,01,16,20,43,6.20
2018,01,16,20,44,6.20
2018,01,16,20,45,6.20
2018,01,16,20,46,6.20
2018,01,16,20,47,6.30
2018,01,16,20,48,6.30
2018,01,16,20,49,6.30
2018,01,16,20,50,6.30
2018,01,16,20,51,6.30
2018,01,16,20,52,6.40
2018,01,16,20,53,6.40
2018,01,16,20,54,6.40
2018,01,16,20,55,6.40
2018,01,16,20,56,6.30
2018,01,16,20,57,6.30
2018,01,16,20,58,6.30
2018,01,16,20,59,6.20
2018,01,16,21,00,6.20
2018,01,16,21,01,6.20
2018,01,16,21,02,6.20
2018,01,16,21,03,6.20
2018,01,16,21,04,6.20
2018,01,16,21,05,6.20
2018,01,16,21,06,6.10
2018,01,16,21,07,6.10
2018,01,16,21,08,6.10
2018,01,16,21,09,6.10
2018,01,16,21,10,6.10
2018,01,16,21,11,6.10
2018,01,16,21,12,6.10
2018,01,16,21,13,6.10
2018,01,16,21,14,6.10
2018,01,16,21,15,6.10
2018,01,16,21,16,6.10
2018,01,16,21,17,6.10
2018,01,16,21,18,6.10
2018,01,16,21,19,6.20
2018,01,16,21,20,6.20
2018,01,16,21,21,6.20
2018,01,16,21,22,6.20
2018,01,16,21,23,6.20
2018,01,16,21,24,6.20
2018,01,16,21,25,6.20
2018,01,16,21,26,6.20
2018,01,16,21,27,6.20
2018,01,16,21,28,6.20
2018,01,16,21,29,6.10
2018,01,16,21,30,6.10
2018,01,16,21,31,6.10
2018,01,16,21,32,6.10
2018,01,16,21,33,6.10
2018,01,16,21,34,6.10
2018,01,16,21,35,6.10
2018,01,16,21,36,6.00
2018,01,16,21,37,6.00
2018,01,16,21,38,6.00
2018,01,16,21,39,6.00
2018,01,16,21,40,6.00
2018,01,16,21,41,6.00
2018,01,16,21,42,6.00
2018,01,16,21,43,6.00
2018,01,16,21,44,6.00
2018,01,16,21,45,6.00
2018,01,16,21,46,6.00
2018,01,16,21,47,6.00
2018,01,16,21,48,6.00
2018,01,16,21,49,6.00
2018,01,16,21,50,6.00
2018,01,16,21,51,6.10
2018,01,16,21,52,6.10
2018,01,16,21,53,6.10
2018,01,16,21,54,6.10
2018,01,16,21,55,6.10
2018,01,16,21,56,6.10
2018,01,16,21,57,6.10
2018,01,16,21,58,6.10